COSMOS 2544 (759)

Last updated on Sun Sep 20 2026 00:03:20 GMT+0000 (Coordinated Universal Time)

1 44850U 19088A 26261.41207061 .00000021 00000+0 00000+0 0 9996 2 44850 65.6225 70.6223 0012069 244.9635 114.9418 2.13103007 52709
UTC large
Height (km)
Speed (km/s)
/
Latitude / Longitude
Inclination (degrees)
Orbital Period (minutes)
Azimuth
Elevation
Range (km)
Doppler Factor

Next 0 passes for location: London (51.5072 / 0.1276)

No passes found over London.
COSMOS 2544 (759)